DW9996 Weather Reports


time (UTC)temp
C
wind
direction
speed
KPH
gust
KPH
rain 1hr
cm
rain 24hr
cm
rain mn
cm
humidity
%
barometer
mb
20260508203010 22 294 8.0 19.3 0.00 0.00 0.00 25 1004.8
20260508201514 22 266 11.3 22.5 0.00 0.00 0.00 24 1005.0
20260508200008 23 263 16.1 30.6 0.00 0.00 0.00 23 1005.1
20260508194505 22 295 9.7 30.6 0.00 0.00 0.00 25 1005.1
20260508193004 23 268 12.9 30.6 0.00 0.00 0.00 24 1005.4
20260508191501 22 231 11.3 27.4 0.00 0.00 0.00 26 1005.7
20260508190058 22 297 14.5 27.4 0.00 0.00 0.00 27 1005.9
20260508184557 22 223 16.1 32.2 0.00 0.00 0.00 31 1006.1
20260508183054 22 254 8.0 20.9 0.00 0.00 0.00 32 1006.4
20260508181554 21 301 6.4 17.7 0.00 0.00 0.00 34 1006.6
20260508180055 21 229 9.7 22.5 0.00 0.00 0.00 34 1006.9
20260508174550 21 196 11.3 24.1 0.00 0.00 0.00 38 1007.1
20260508173044 20 207 9.7 24.1 0.00 0.00 0.00 39 1007.2
20260508171542 20 238 9.7 25.7 0.00 0.00 0.00 39 1007.5
20260508170040 19 252 11.3 29.0 0.00 0.00 0.00 43 1007.7
20260508164535 19 234 12.9 27.4 0.00 0.00 0.00 42 1007.9
20260508163036 18 238 14.5 24.1 0.00 0.00 0.00 45 1008.0
20260508161532 17 227 11.3 20.9 0.00 0.00 0.00 49 1008.2
20260508160025 17 219 11.3 20.9 0.00 0.00 0.00 50 1008.3
20260508154522 16 224 12.9 22.5 0.00 0.00 0.00 52 1008.6
20260508153017 15 232 9.7 17.7 0.00 0.00 0.00 56 1008.8
20260508151515 14 229 9.7 20.9 0.00 0.00 0.00 60 1009.0
20260508150018 13 220 9.7 20.9 0.00 0.00 0.00 60 1009.1
20260508144509 13 233 9.7 19.3 0.00 0.00 0.00 59 1009.2
20260508143010 12 221 11.3 19.3 0.00 0.00 0.00 61 1009.4
20260508141503 11 188 6.4 9.7 0.00 0.00 0.00 54 1009.6
20260508140107 11 169 4.8 6.4 0.00 0.00 0.00 54 1009.6
20260508134604 9 221 0.0 3.2 0.00 0.00 0.00 57 1009.7
20260508133055 8 221 0.0 3.2 0.00 0.00 0.00 62 1009.9
20260508131554 7 221 0.0 3.2 0.00 0.00 0.00 67 1010.0
20260508130052 5 257 0.0 3.2 0.00 0.00 0.00 67 1009.7
20260508124553 4 257 1.6 4.8 0.00 0.00 0.00 67 1009.8
20260508123052 4 257 0.0 4.8 0.00 0.00 0.00 65 1009.6
20260508121551 4 295 0.0 0.0 0.00 0.00 0.00 66 1009.7
20260508120051 3 308 1.6 6.4 0.00 0.00 0.00 68 1009.7
20260508114603 3 309 1.6 4.8 0.00 0.00 0.00 68 1009.7
20260508113051 4 296 1.6 8.0 0.00 0.00 0.00 66 1009.4
20260508111600 5 308 3.2 6.4 0.00 0.00 0.00 65 1009.6
20260508110045 4 308 4.8 8.0 0.00 0.00 0.00 67 1009.6
20260508104545 3 303 4.8 6.4 0.00 0.00 0.00 70 1009.7
20260508103043 2 286 1.6 8.0 0.00 0.00 0.00 70 1009.7
20260508101541 3 294 1.6 4.8 0.00 0.00 0.00 69 1009.7
20260508100038 3 313 3.2 6.4 0.00 0.00 0.00 67 1009.6
20260508094536 3 259 3.2 4.8 0.00 0.00 0.00 66 1009.7
20260508093035 3 259 1.6 4.8 0.00 0.00 0.00 67 1009.6
20260508091538 4 253 1.6 3.2 0.00 0.00 0.00 65 1009.5
20260508090030 5 253 1.6 6.4 0.00 0.00 0.00 65 1009.6
20260508084528 4 234 3.2 9.7 0.00 0.00 0.00 67 1009.6
20260508083025 5 296 3.2 8.0 0.00 0.00 0.00 66 1009.4
20260508081522 6 263 8.0 16.1 0.00 0.00 0.00 65 1009.4
20260508080018 7 301 3.2 8.0 0.00 0.00 0.00 62 1009.2
20260508074518 6 254 1.6 4.8 0.00 0.00 0.00 64 1009.1
20260508073018 7 254 1.6 4.8 0.00 0.00 0.00 64 1009.1
20260508071513 8 311 1.6 6.4 0.00 0.00 0.00 60 1009.0
20260508070010 8 302 1.6 6.4 0.00 0.00 0.00 61 1008.9
20260508064508 8 273 1.6 4.8 0.00 0.00 0.00 63 1008.9
20260508063006 8 265 3.2 6.4 0.00 0.00 0.00 61 1008.9
20260508061505 8 304 3.2 4.8 0.00 0.00 0.00 62 1008.8
20260508060059 10 291 3.2 6.4 0.00 0.00 0.00 59 1008.8
20260508054559 11 298 3.2 11.3 0.00 0.00 0.00 57 1008.8
20260508053106 11 291 3.2 9.7 0.00 0.00 0.00 55 1008.8
20260508051606 12 298 1.6 6.4 0.00 0.00 0.00 55 1008.7
20260508050058 12 300 3.2 6.4 0.00 0.00 0.00 54 1008.8
20260508044607 13 284 4.8 9.7 0.00 0.00 0.00 51 1008.9
20260508043056 14 283 4.8 12.9 0.00 0.00 0.00 48 1008.7
20260508041556 15 275 8.0 17.7 0.00 0.00 0.00 47 1008.6
20260508040056 13 288 8.0 16.1 0.00 0.00 0.00 50 1008.6
20260508034555 13 295 4.8 8.0 0.00 0.00 0.00 51 1008.6
20260508033100 13 288 3.2 6.4 0.00 0.00 0.00 50 1008.5
20260508031556 15 285 3.2 9.7 0.00 0.00 0.00 46 1008.4
20260508030054 16 263 6.4 12.9 0.00 0.00 0.00 44 1008.1
20260508024603 16 309 6.4 11.3 0.00 0.00 0.00 43 1008.1
20260508023055 15 286 3.2 6.4 0.00 0.00 0.00 42 1007.8
20260508021555 16 307 1.6 9.7 0.00 0.00 0.00 36 1007.6
20260508020053 17 304 3.2 6.4 0.00 0.00 0.00 34 1007.3
20260508014552 18 330 4.8 14.5 0.00 0.00 0.00 31 1007.2
20260508013051 18 350 8.0 19.3 0.00 0.00 0.00 30 1007.1
20260508011605 18 346 8.0 14.5 0.00 0.00 0.00 31 1006.9
20260508010049 19 315 6.4 14.5 0.00 0.00 0.00 30 1007.0
20260508004556 20 355 12.9 20.9 0.00 0.00 0.00 27 1006.9
20260508003049 21 317 9.7 17.7 0.00 0.00 0.00 27 1006.9
20260508001551 20 284 11.3 25.7 0.00 0.00 0.00 28 1006.8
20260508000047 20 332 14.5 25.7 0.00 0.00 0.00 27 1007.0
20260507234553 20 323 14.5 22.5 0.00 0.00 0.00 27 1006.9
20260507233047 20 300 11.3 22.5 0.00 0.00 0.00 28 1006.9
20260507231550 21 319 9.7 20.9 0.00 0.00 0.00 29 1006.9
20260507230044 20 313 11.3 22.5 0.00 0.00 0.00 30 1006.9
20260507224544 20 307 11.3 30.6 0.00 0.00 0.00 29 1006.9
20260507223041 20 314 12.9 22.5 0.00 0.00 0.00 29 1007.0
20260507221539 20 323 11.3 24.1 0.00 0.00 0.00 30 1007.1
20260507220037 20 316 11.3 40.2 0.00 0.00 0.00 31 1007.3
20260507214536 20 319 9.7 29.0 0.00 0.00 0.00 31 1007.3
20260507213043 20 346 14.5 25.7 0.00 0.00 0.00 31 1007.5
20260507211536 20 333 14.5 27.4 0.00 0.00 0.00 30 1007.7
20260507210033 19 322 11.3 25.7 0.00 0.00 0.00 30 1007.8
20260507204532 20 325 12.9 22.5 0.00 0.00 0.00 30 1007.8